                ,  1.165,  1.315,  1.465,  1.615,  1.765,  1.915,  2.065,  2.215,  2.365,  2.515,  2.665,  2.815,  2.965,  3.115,  3.265,  3.415,  3.565,  3.715,  3.865,  4.015,  4.165,  4.315,  4.465,  4.615,  4.765,  4.915,  5.065,  5.215,  5.365,  5.515
2005/09/02 00:00,   -6.0,   -6.1,   -6.0,   -5.9,   -5.7,   -5.6,   -5.2,   -5.3,   -5.3,   -5.7,   -5.6,   -5.4,   -5.1,   -5.0,   -5.1,   -5.3,   -5.3,   -5.2,   -5.5,   -5.9,   -6.2,   -6.8,   -5.0,  999.0,   -2.1,   -1.6,   -1.7,   -1.8,   -1.4,   -1.0
2005/09/02 00:10,   -6.2,   -6.4,   -6.5,   -6.3,   -6.5,   -6.3,   -6.4,   -6.3,   -6.3,   -6.2,   -6.2,   -6.2,   -6.1,   -6.0,   -5.9,   -5.8,   -5.7,   -5.5,   -5.4,   -4.4,   -5.5,   -5.5,   -5.2,   -2.6,   -2.8,   -1.8,   -1.6,   -2.0,   -1.8,   -1.5
2005/09/02 00:20,   -7.1,   -7.0,   -7.0,   -6.9,   -7.0,   -7.1,   -7.1,   -7.2,   -7.2,   -7.2,   -7.3,   -7.3,   -7.5,   -7.7,   -7.9,   -8.0,   -7.6,   -7.3,   -6.2,   -6.8,   -7.6,   -7.3,   -6.3,   -4.9,   -2.2,   -1.8,   -1.7,   -1.4,   -1.2,   -1.0
2005/09/02 00:30,   -7.0,   -7.2,   -6.8,   -6.6,   -6.4,   -6.5,   -7.1,   -7.5,   -7.7,   -7.9,   -8.1,   -8.3,   -7.8,   -7.6,   -7.6,   -7.9,   -8.0,   -7.6,   -7.4,   -7.5,   -6.8,   -6.6,   -5.9,   -4.7,   -4.1,   -3.1,   -2.8,   -1.8,  999.0,  999.0
2005/09/02 00:40,   -7.0,   -7.3,   -7.3,   -7.4,   -6.9,   -6.3,   -6.2,   -6.3,   -6.5,   -6.4,   -6.3,   -6.2,   -6.1,   -6.0,   -5.5,   -5.3,   -5.4,   -5.9,   -6.0,   -5.9,   -5.8,   -5.4,   -4.9,   -4.7,   -3.8,   -3.1,   -2.7,   -2.2,   -1.7,   -1.2
2005/09/02 00:50,   -6.5,   -6.6,   -6.7,   -6.6,   -6.4,   -6.4,   -6.4,   -6.2,   -6.2,   -6.0,   -6.3,   -6.0,   -5.8,   -5.7,   -5.6,   -5.6,   -5.5,   -5.4,   -5.2,   -5.3,   -5.6,   -5.5,   -5.2,   -4.0,   -2.9,   -1.9,   -1.6,   -1.8,   -1.8,   -1.5
2005/09/02 01:00,   -6.8,   -7.1,   -7.4,   -7.6,   -7.6,   -7.6,   -7.4,   -7.2,   -7.0,   -6.8,   -6.7,   -6.8,   -6.1,   -6.5,   -6.3,   -5.1,   -5.7,   -5.7,   -5.9,   -5.7,   -5.9,   -6.3,   -5.6,   -4.0,   -2.7,   -2.6,   -2.6,   -2.1,   -1.8,   -1.9
2005/09/02 01:10,   -6.7,   -6.8,   -6.6,   -7.0,   -7.4,   -7.8,   -8.1,   -8.4,   -8.2,   -8.1,   -8.0,   -7.8,   -7.7,   -7.7,   -7.8,   -7.9,   -8.0,   -8.0,   -8.0,   -7.8,   -7.6,   -6.8,   -5.8,   -4.4,   -3.3,   -2.4,   -2.2,   -1.9,   -1.5,   -1.1
2005/09/02 01:20,   -7.8,   -7.9,   -7.9,   -7.8,   -7.6,   -7.5,   -7.9,   -8.0,   -8.3,   -8.6,   -8.7,   -9.2,   -9.2,   -8.1,   -7.8,   -7.9,   -8.1,   -7.6,   -7.6,   -7.6,   -7.2,   -6.8,   -6.0,   -4.7,   -4.0,   -3.9,   -3.1,   -2.5,   -2.1,   -1.5
2005/09/02 01:30,   -6.5,   -6.7,   -6.8,   -6.7,   -6.7,   -6.8,   -6.9,   -6.9,   -7.1,   -7.3,   -7.5,   -7.7,   -7.8,   -8.0,   -8.2,   -8.2,   -7.6,   -7.3,   -7.7,   -7.2,   -7.0,   -6.7,   -5.3,   -4.0,   -3.3,   -3.0,   -2.0,   -1.3,   -1.4,   -1.4
2005/09/02 01:40,   -6.0,   -6.2,   -6.1,   -6.2,   -6.4,   -6.5,   -6.5,   -6.6,   -6.5,   -6.5,   -6.6,   -6.7,   -6.8,   -7.0,   -6.9,   -6.9,   -6.7,   -6.7,   -6.6,   -6.5,   -6.7,   -6.6,   -4.9,   -3.3,   -2.6,   -2.3,   -2.0,   -1.8,   -1.7,   -1.7
2005/09/02 01:50,   -5.4,   -4.5,   -4.6,   -4.8,   -5.8,   -5.9,   -6.0,   -6.0,   -6.2,   -6.1,   -6.0,   -6.3,   -6.7,   -7.2,   -7.4,   -7.8,   -7.9,   -7.9,   -7.9,   -8.1,   -8.1,   -7.5,   -5.0,   -2.9,   -2.2,   -2.0,   -1.9,   -1.6,   -1.4,   -1.3
2005/09/02 02:00,   -6.4,   -6.4,   -6.4,   -6.3,   -6.3,   -6.4,   -6.2,   -6.4,   -6.3,   -6.6,   -6.6,   -6.5,   -6.5,   -6.4,   -6.3,   -6.5,   -6.9,   -7.2,   -7.4,   -7.6,   -7.8,   -7.3,   -4.3,  999.0,   -2.1,   -2.0,   -1.8,   -1.5,   -1.5,   -1.4
2005/09/02 02:10,   -5.5,   -5.5,   -5.7,   -5.8,   -5.8,   -6.0,   -5.5,   -5.3,   -5.2,   -5.2,   -5.1,   -4.9,   -4.9,   -4.9,   -4.8,   -4.6,   -4.7,   -4.7,   -5.1,   -5.6,   -6.1,   -6.0,   -4.0,  999.0,   -2.3,   -2.0,   -1.8,   -1.6,   -1.5,   -1.5
2005/09/02 02:20,   -3.7,   -3.7,   -3.5,   -3.8,   -3.9,   -4.1,   -4.5,   -4.5,   -4.4,   -4.4,   -4.1,   -4.1,   -4.1,   -4.4,   -4.3,   -4.4,   -4.6,   -4.5,   -4.3,   -4.3,   -5.4,   -5.6,   -4.6,   -2.5,   -2.0,   -1.7,   -1.7,   -1.9,   -1.8,   -1.6
2005/09/02 02:30,   -4.3,   -4.3,   -4.4,   -4.6,   -4.7,   -4.7,   -4.7,   -4.8,   -4.5,   -4.5,   -4.4,   -4.4,   -6.5,   -6.4,   -6.4,   -4.5,   -4.5,   -4.9,   -5.1,   -5.3,   -5.0,   -4.9,   -4.2,   -3.6,   -2.7,   -2.5,   -2.2,   -1.7,   -1.7,   -1.8
2005/09/02 02:40,   -6.2,   -6.2,   -6.1,   -6.1,   -6.3,   -6.3,   -6.3,   -6.4,   -6.2,   -6.3,   -6.4,   -6.4,   -6.5,   -6.6,   -6.6,   -6.6,   -6.7,   -6.7,   -6.3,   -6.2,   -6.0,   -5.7,   -5.6,   -5.0,   -4.1,   -3.3,   -3.5,   -2.3,   -1.9,   -1.6
2005/09/02 02:50,   -6.0,   -6.1,   -6.1,   -6.2,   -6.3,   -6.4,   -6.4,   -6.4,   -6.3,   -6.3,   -6.2,   -6.2,   -6.1,   -6.2,   -6.3,   -6.1,   -6.0,   -5.9,   -5.9,   -6.2,   -6.1,   -6.5,   -6.5,   -5.3,   -3.8,  999.0,   -1.4,   -0.8,   -0.4,   -0.3
2005/09/02 03:00,   -5.3,   -5.4,   -5.2,   -4.9,   -4.7,   -4.3,   -3.7,   -3.3,   -3.2,   -3.0,   -2.3,   -2.8,   -1.8,   -2.4,   -0.8,   -5.2,   -5.4,   -5.7,   -6.0,   -6.6,   -6.7,   -6.9,   -7.2,   -6.0,  999.0,  999.0,   -1.7,   -1.6,   -1.6,   -1.4
2005/09/02 03:10,   -4.7,   -4.4,   -4.1,   -3.8,   -3.8,   -3.5,   -3.2,   -3.0,   -2.8,   -2.7,   -2.3,   -2.1,   -2.1,   -1.8,   -1.6,   -2.7,   -4.0,   -4.2,   -4.3,   -4.4,   -4.4,   -4.6,   -5.3,   -3.7,   -2.1,   -1.5,   -1.2,   -1.4,   -1.5,   -1.6
2005/09/02 03:20,   -2.6,   -2.0,   -2.5,   -2.3,   -2.2,   -2.0,   -2.0,   -1.6,   -1.6,   -1.4,   -1.1,   -0.9,   -0.9,   -0.4,  999.0,  999.0,  999.0,   -0.8,  999.0,   -0.8,   -4.8,   -5.4,   -5.2,   -2.6,   -1.7,   -1.7,   -1.5,   -1.4,   -1.5,   -1.4
2005/09/02 03:30,   -3.0,   -2.8,   -2.7,   -2.6,   -2.5,   -2.3,   -2.2,   -1.9,   -1.7,   -1.5,   -1.2,   -1.1,   -0.8,   -0.8,   -0.6,  999.0,  999.0,  999.0,  999.0,   -6.3,   -5.9,   -5.8,   -4.8,  999.0,   -1.3,   -1.3,   -1.3,   -1.4,   -1.4,   -1.6
2005/09/02 03:40,   -3.2,   -3.4,   -3.3,   -3.1,   -2.8,   -2.6,   -2.3,   -2.0,   -1.9,   -1.5,   -1.2,   -1.0,   -0.8,   -0.4,   -0.0,   -0.3,  999.0,   -0.2,   -0.1,  999.0,  999.0,  999.0,  999.0,   -1.5,   -0.9,   -0.9,   -1.2,  999.0,  999.0,  999.0
2005/09/02 03:50,   -3.8,   -3.9,   -3.9,   -3.3,   -2.9,   -2.9,   -2.8,   -2.6,   -2.4,   -2.1,   -1.9,   -1.3,   -0.8,   -0.5,   -0.1,   -0.4,   -0.1,   -0.1,   -0.2,   -0.7,   -0.3,   -0.2,   -0.0,   -0.5,   -0.1,  999.0,  999.0,  999.0,    0.3,   -0.1
2005/09/02 04:00,   -3.1,   -3.1,   -3.0,   -2.9,   -2.7,   -2.6,   -2.4,   -2.1,   -2.3,   -2.5,   -2.2,   -1.9,   -1.4,   -0.7,   -0.3,   -0.3,   -0.3,   -0.2,    0.0,   -2.0,   -0.2,   -0.4,   -0.1,   -0.1,  999.0,  999.0,  999.0,  999.0,   -0.1,    0.4
2005/09/02 04:10,   -2.6,   -2.6,   -2.4,   -2.3,   -2.1,   -2.1,   -1.8,   -1.5,   -1.3,   -1.3,   -1.0,  999.0,   -0.8,   -0.1,   -0.1,    0.0,   -0.1,   -0.5,  999.0,   -1.3,   -0.3,   -0.8,   -0.2,   -0.3,    0.1,  999.0,  999.0,  999.0,    0.1,   -0.2
2005/09/02 04:20,   -3.8,   -4.3,   -4.2,   -4.4,   -4.2,   -3.9,   -3.6,   -3.2,   -2.7,   -2.5,   -2.3,   -2.5,   -3.2,   -2.5,   -2.7,   -2.3,   -2.1,   -1.7,   -1.5,   -0.8,   -0.8,   -0.8,   -0.8,   -1.6,   -1.1,  999.0,   -0.8,   -1.3,   -0.4,   -1.3
2005/09/02 04:30,   -3.4,   -3.4,   -3.5,   -3.1,   -2.9,   -2.6,   -2.4,   -2.3,   -2.1,   -1.8,   -3.8,   -3.8,   -4.3,   -4.6,   -4.9,   -4.3,   -3.6,   -2.5,   -3.4,  999.0,   -2.7,  999.0,   -1.9,   -3.2,   -2.2,   -1.7,   -1.4,  999.0,   -1.3,  999.0
2005/09/02 04:40,   -2.3,   -2.1,   -2.0,   -1.7,   -1.5,   -1.5,   -1.4,   -1.1,   -0.9,   -0.6,  999.0,  999.0,   -5.8,   -5.5,   -5.9,   -6.6,   -5.8,   -1.3,   -1.5,   -1.5,   -0.9,   -1.1,   -0.8,   -2.9,   -1.6,   -0.8,  999.0,  999.0,   -0.2,  999.0
2005/09/02 04:50,   -0.9,   -1.5,   -1.2,   -1.3,   -1.1,   -1.1,   -1.4,   -0.7,   -1.4,   -1.2,   -1.7,   -1.3,   -0.7,   -0.8,   -0.2,   -0.2,   -0.3,   -0.0,   -0.2,   -0.4,   -0.6,   -0.9,   -0.1,   -1.4,   -1.6,   -1.5,   -1.5,   -1.4,   -0.7,   -1.2
2005/09/02 05:00,   -2.1,   -2.3,   -2.4,   -2.8,   -2.2,   -3.2,   -3.4,   -2.3,   -2.5,   -2.1,   -1.9,   -1.4,   -1.1,   -0.3,    0.0,  999.0,   -4.1,   -0.0,    0.1,  999.0,  999.0,  999.0,  999.0,  999.0,   -1.5,   -1.6,   -1.4,   -1.4,   -1.4,   -1.5
2005/09/02 05:10,   -2.3,   -2.0,   -1.9,   -1.8,   -1.9,   -1.9,   -1.7,   -1.3,   -1.1,   -1.3,   -1.1,   -0.9,   -0.5,   -0.0,    0.2,    0.1,    0.1,   -0.1,    0.0,  999.0,   -0.2,   -0.1,    0.1,   -1.7,   -1.5,   -1.4,   -1.1,  999.0,    0.3,   -0.1
2005/09/02 05:20,   -2.8,   -2.6,   -2.5,   -2.6,   -2.8,   -2.3,   -1.8,   -1.5,   -1.5,   -1.1,   -0.6,   -0.6,   -0.2,   -0.2,    0.0,    0.1,   -0.1,   -0.0,    0.0,   -0.1,  999.0,    0.2,    0.0,   -1.4,  999.0,  999.0,  999.0,  999.0,  999.0,  999.0
2005/09/02 05:30,   -1.8,   -1.9,   -2.1,   -2.2,   -1.5,   -1.3,   -1.1,   -1.1,   -1.0,   -1.2,  999.0,  999.0,  999.0,   -0.2,   -0.2,   -0.1,  999.0,   -0.1,    0.2,  999.0,  999.0,  999.0,    0.0,    0.1,  999.0,  999.0,  999.0,   -2.9,   -0.2,  999.0
2005/09/02 05:40,   -2.6,   -2.4,   -2.5,   -2.5,   -2.4,   -2.1,   -1.9,   -1.6,   -1.5,   -1.4,   -1.3,   -1.0,   -0.9,   -0.6,   -0.1,  999.0,  999.0,  999.0,  999.0,  999.0,  999.0,  999.0,  999.0,   -2.2,   -2.2,   -1.9,   -2.1,   -2.2,   -2.5,   -2.8
2005/09/02 05:50,   -2.0,   -1.9,   -2.2,   -2.1,   -1.9,   -2.2,   -2.0,   -1.6,   -1.7,   -1.9,   -1.9,   -0.8,  999.0,  999.0,   -3.1,   -5.7,   -5.5,   -5.2,   -5.1,   -5.1,   -5.3,   -4.7,   -3.0,   -2.5,   -2.3,   -2.1,   -2.2,   -2.2,   -2.3,   -2.4
2005/09/02 06:00,  999.0,  999.0,  999.0,  999.0,  999.0,  999.0,   -2.2,  999.0,  999.0,   -6.7,   -6.6,   -6.2,   -5.8,   -5.4,   -5.3,   -4.9,   -4.8,   -5.1,   -5.2,   -5.4,   -5.5,   -4.8,  999.0,   -2.1,   -1.7,   -1.6,   -1.7,   -1.9,   -2.0,   -1.8
2005/09/02 06:10,   -2.6,   -2.5,   -2.4,   -2.2,   -2.1,   -1.6,   -2.6,  999.0,   -6.1,   -5.8,   -5.8,   -5.7,   -5.7,   -5.4,   -4.9,   -4.6,   -4.7,   -4.7,   -4.7,   -4.7,   -4.9,   -4.8,  999.0,   -1.6,   -1.5,   -1.5,   -1.6,   -1.7,   -1.8,   -1.8
2005/09/02 06:20,   -2.5,   -2.2,   -2.1,   -1.9,   -1.6,   -0.9,  999.0,   -6.3,   -6.4,   -6.4,   -6.6,   -6.8,   -6.7,   -6.7,   -6.8,   -7.1,   -6.7,   -6.4,   -6.2,   -6.2,   -6.5,   -5.6,  999.0,   -1.9,   -1.8,   -1.8,   -1.7,   -1.7,   -1.7,   -1.6
2005/09/02 06:30,   -2.6,   -2.4,  999.0,   -1.9,   -1.8,   -1.6,  999.0,  999.0,  999.0,   -6.2,   -6.5,   -6.4,   -6.2,   -6.2,   -6.3,   -6.4,   -6.4,   -6.6,   -6.5,   -6.4,   -6.2,   -4.5,  999.0,   -1.8,   -2.2,   -1.9,   -1.8,   -1.6,   -1.5,   -1.5
2005/09/02 06:40,   -2.8,   -2.7,   -2.4,   -2.2,   -1.9,   -1.2,   -1.6,   -5.6,   -6.4,   -6.6,   -6.6,   -6.6,   -6.6,   -6.4,   -6.5,   -6.5,   -5.8,   -6.4,   -6.7,   -6.2,   -6.4,   -5.2,  999.0,   -1.1,   -1.3,   -1.3,   -1.2,   -1.4,   -1.5,   -1.5
2005/09/02 06:50,   -3.0,   -2.9,   -2.7,   -2.7,   -2.4,   -2.2,   -1.2,   -7.4,   -7.4,   -7.5,   -7.5,   -7.5,   -7.3,   -7.2,   -7.0,   -7.0,   -7.0,   -7.0,   -6.9,   -6.6,   -6.4,   -4.9,  999.0,   -1.5,   -1.2,   -1.4,   -1.7,   -1.8,   -1.6,   -2.0
2005/09/02 07:00,   -4.0,   -3.8,   -3.5,   -3.3,   -3.2,   -2.7,   -2.2,   -6.5,   -6.5,   -6.2,   -6.6,   -6.6,   -6.3,   -6.2,   -6.2,   -6.8,   -6.5,   -6.3,   -5.3,   -5.2,   -4.9,   -3.1,   -2.2,   -1.3,   -1.7,   -1.9,   -1.8,   -1.7,   -1.6,   -1.6
2005/09/02 07:10,   -2.9,   -2.9,   -2.8,   -2.8,   -2.5,   -2.2,   -2.2,  999.0,   -4.9,   -5.0,   -5.8,   -5.9,   -5.7,   -5.7,   -5.5,   -5.2,   -4.9,   -4.6,   -4.2,   -4.1,   -4.4,   -3.8,   -2.0,   -1.5,   -1.4,   -1.6,   -1.5,   -1.5,   -1.4,   -1.2
2005/09/02 07:20,   -1.2,   -1.7,   -1.7,   -2.0,   -2.0,   -1.7,   -1.4,  999.0,   -5.6,   -5.2,   -5.6,   -5.9,   -6.0,   -6.2,   -6.1,   -6.2,   -5.6,   -4.0,   -3.1,   -5.2,   -6.0,   -3.6,  999.0,   -1.4,   -1.2,   -1.3,   -1.2,   -1.1,   -0.7,   -0.7
2005/09/02 07:30,   -0.2,   -1.2,   -1.8,   -2.1,   -2.0,  999.0,  999.0,  999.0,   -6.1,   -6.9,  999.0,  999.0,   -6.5,   -6.6,   -6.4,   -6.4,   -6.5,   -7.0,   -6.5,   -6.4,   -6.5,   -2.7,  999.0,   -1.7,   -1.5,   -1.3,   -1.2,   -1.0,   -1.2,   -1.1
2005/09/02 07:40,  999.0,  999.0,  999.0,  999.0,  999.0,   -6.4,   -6.1,   -6.1,   -6.2,   -7.0,   -7.0,   -6.3,   -5.7,   -6.0,   -6.0,   -6.1,   -6.0,   -5.7,   -5.5,   -5.4,  999.0,  999.0,  999.0,  999.0,   -1.7,   -1.4,   -1.4,   -1.2,   -0.3,    0.1
2005/09/02 07:50,  999.0,  999.0,   -4.9,   -5.0,   -4.8,   -4.8,   -5.5,   -5.7,   -5.6,   -4.8,   -4.2,   -3.6,   -3.2,   -3.2,  999.0,  999.0,  999.0,  999.0,  999.0,  999.0,  999.0,   -0.7,   -1.1,   -0.8,  999.0,  999.0,  999.0,  999.0,    0.1,   -0.2
2005/09/02 08:00,  999.0,  999.0,   -5.2,   -4.7,   -4.6,   -4.8,   -5.2,   -4.9,   -4.3,   -3.9,   -3.4,  999.0,  999.0,  999.0,  999.0,  999.0,  999.0,  999.0,  999.0,  999.0,  999.0,    0.2,   -0.6,  999.0,   -0.4,  999.0,  999.0,  999.0,    0.1,    0.4
2005/09/02 08:10,   -0.4,   -0.3,   -0.3,  999.0,  999.0,  999.0,  999.0,  999.0,   -4.4,   -3.7,   -2.6,   -3.1,  999.0,  999.0,   -0.2,   -0.2,   -0.2,   -0.0,  999.0,  999.0,  999.0,    0.1,    0.2,    0.1,  999.0,  999.0,  999.0,  999.0,  999.0,  999.0
2005/09/02 08:20,   -0.2,    0.2,   -0.2,  999.0,  999.0,  999.0,  999.0,  999.0,  999.0,  999.0,  999.0,  999.0,  999.0,    0.1,    0.2,   -0.2,   -0.2,    0.3,   -0.2,    0.1,  999.0,  999.0,    0.0,   -0.1,  999.0,  999.0,  999.0,  999.0,  999.0,  999.0
2005/09/02 08:30,   -0.3,   -0.1,    0.1,    0.5,  999.0,  999.0,  999.0,  999.0,  999.0,  999.0,  999.0,  999.0,  999.0,   -0.0,   -0.1,    0.1,  999.0,    0.1,  999.0,  999.0,  999.0,   -0.0,   -0.1,   -0.0,  999.0,  999.0,  999.0,  999.0,   -0.2,  999.0
2005/09/02 08:40,   -0.1,   -0.2,   -0.3,  999.0,  999.0,  999.0,  999.0,  999.0,  999.0,  999.0,  999.0,  999.0,    0.1,   -0.1,    0.1,  999.0,  999.0,   -0.1,   -0.0,    0.1,  999.0,    0.1,   -0.6,    0.3,   -0.1,    0.9,  999.0,  999.0,    0.2,    0.1
2005/09/02 08:50,    0.3,   -0.2,   -0.2,   -0.1,   -0.0,  999.0,  999.0,  999.0,  999.0,  999.0,  999.0,  999.0,   -0.1,    0.0,    0.2,  999.0,  999.0,   -0.2,   -0.1,    0.0,  999.0,   -0.1,   -0.3,  999.0,   -0.1,  999.0,  999.0,  999.0,    0.2,  999.0
2005/09/02 09:00,    0.1,   -0.1,   -0.7,   -0.3,  999.0,  999.0,  999.0,  999.0,  999.0,  999.0,  999.0,  999.0,  999.0,   -0.1,    0.0,  999.0,  999.0,  999.0,  999.0,   -0.5,    0.0,  999.0,    0.2,    0.0,  999.0,  999.0,  999.0,  999.0,  999.0,  999.0
2005/09/02 09:10,    0.3,    0.3,    0.3,    0.1,  999.0,  999.0,  999.0,  999.0,  999.0,  999.0,  999.0,  999.0,   -0.1,  999.0,   -0.1,  999.0,  999.0,  999.0,  999.0,  999.0,  999.0,  999.0,    0.3,    0.0,  999.0,  999.0,  999.0,  999.0,    0.1,  999.0
2005/09/02 09:20,    0.3,    0.2,   -0.3,   -0.4,  999.0,  999.0,  999.0,  999.0,  999.0,  999.0,  999.0,  999.0,  999.0,  999.0,  999.0,  999.0,  999.0,  999.0,  999.0,  999.0,  999.0,  999.0,  999.0,  999.0,  999.0,  999.0,   -0.2,  999.0,   -0.0,  999.0
2005/09/02 09:30,    0.2,    0.4,    0.2,    0.1,   -0.2,  999.0,   -0.3,  999.0,  999.0,   -0.4,  999.0,  999.0,  999.0,  999.0,  999.0,  999.0,  999.0,  999.0,  999.0,  999.0,  999.0,  999.0,  999.0,  999.0,  999.0,  999.0,  999.0,  999.0,  999.0,    0.3
2005/09/02 09:40,    0.1,    0.1,    0.1,    0.5,    0.1,   -0.5,   -0.5,  999.0,   -0.2,   -0.2,  999.0,  999.0,    0.3,    0.2,   -0.0,  999.0,  999.0,  999.0,  999.0,  999.0,  999.0,  999.0,  999.0,   -0.3,    0.0,  999.0,  999.0,  999.0,  999.0,  999.0
2005/09/02 09:50,    0.6,    0.0,    0.3,    0.0,    0.4,  999.0,    0.0,   -0.1,   -0.0,    0.4,  999.0,  999.0,  999.0,   -0.0,   -0.0,  999.0,  999.0,  999.0,  999.0,  999.0,  999.0,  999.0,   -0.1,    0.1,  999.0,  999.0,  999.0,  999.0,    0.2,  999.0
2005/09/02 10:00,    0.4,   -0.0,    0.1,    0.1,    0.4,    0.2,  999.0,    0.0,  999.0,   -0.1,  999.0,  999.0,  999.0,  999.0,   -0.0,  999.0,  999.0,  999.0,   -0.0,  999.0,    0.1,    0.2,    0.1,  999.0,  999.0,  999.0,  999.0,  999.0,  999.0,  999.0
2005/09/02 10:10,    0.4,    0.1,    0.2,    0.3,    0.6,    0.5,    0.1,   -0.0,  999.0,  999.0,  999.0,  999.0,  999.0,  999.0,  999.0,  999.0,  999.0,  999.0,    0.1,    0.0,   -0.1,   -0.1,    0.4,    0.1,  999.0,  999.0,  999.0,  999.0,    0.4,   -0.0
2005/09/02 10:20,    0.2,    0.2,   -0.1,   -0.1,   -0.0,    0.6,    0.7,  999.0,  999.0,  999.0,  999.0,  999.0,  999.0,  999.0,  999.0,  999.0,  999.0,   -0.1,   -0.2,    0.0,    0.1,   -0.0,    0.3,  999.0,    0.1,  999.0,  999.0,  999.0,   -0.0,  999.0
2005/09/02 10:30,   -0.2,   -0.2,   -0.4,   -0.3,   -0.2,  999.0,  999.0,  999.0,  999.0,  999.0,  999.0,  999.0,  999.0,   -0.2,  999.0,  999.0,  999.0,   -0.1,    0.2,    0.1,  999.0,   -0.2,  999.0,    0.3,    0.1,  999.0,  999.0,  999.0,    0.1,  999.0
2005/09/02 10:40,   -0.1,   -0.3,   -0.3,   -0.3,   -0.8,   -0.5,  999.0,  999.0,  999.0,  999.0,  999.0,  999.0,    0.3,    0.2,    0.1,    0.1,  999.0,  999.0,   -0.1,    0.2,   -0.2,   -0.1,   -0.2,   -0.0,  999.0,  999.0,  999.0,  999.0,    0.0,    0.0
2005/09/02 10:50,    0.1,   -0.5,   -0.3,   -0.4,   -0.6,   -0.6,  999.0,  999.0,  999.0,  999.0,  999.0,  999.0,   -0.0,   -0.2,    0.0,  999.0,  999.0,   -0.1,    0.0,  999.0,    0.2,   -0.1,    0.2,    0.1,    0.2,  999.0,  999.0,  999.0,   -0.1,  999.0
2005/09/02 11:00,   -0.7,   -0.7,   -0.2,   -0.2,   -0.8,  999.0,  999.0,  999.0,  999.0,  999.0,  999.0,  999.0,    0.0,    0.2,  999.0,  999.0,  999.0,  999.0,    0.2,    0.0,  999.0,    0.0,    0.0,  999.0,  999.0,  999.0,  999.0,  999.0,  999.0,  999.0
2005/09/02 11:10,   -0.1,   -0.6,   -0.3,   -0.4,   -0.7,    0.1,  999.0,  999.0,  999.0,   -0.1,  999.0,    0.0,    0.1,    0.2,    0.1,  999.0,  999.0,  999.0,   -0.0,   -0.1,    0.0,    0.2,   -0.2,   -0.2,  999.0,  999.0,  999.0,  999.0,  999.0,  999.0
2005/09/02 11:20,   -0.4,   -0.5,   -0.7,   -0.6,  999.0,  999.0,  999.0,  999.0,  999.0,    0.1,  999.0,  999.0,    0.2,   -0.3,  999.0,   -0.1,  999.0,    0.1,   -0.0,   -0.3,   -0.9,   -0.0,    0.0,   -0.0,  999.0,  999.0,  999.0,  999.0,  999.0,    0.1
2005/09/02 11:30,   -0.1,   -0.6,   -0.4,  999.0,   -0.1,  999.0,  999.0,  999.0,  999.0,  999.0,    0.4,    0.1,    0.0,    0.0,   -0.1,  999.0,  999.0,    0.0,  999.0,   -0.1,   -0.4,   -0.1,  999.0,    0.1,  999.0,  999.0,  999.0,  999.0,  999.0,  999.0
2005/09/02 11:40,   -0.3,   -0.3,   -0.5,   -0.8,  999.0,  999.0,  999.0,  999.0,  999.0,  999.0,  999.0,  999.0,    0.3,  999.0,   -0.1,    0.4,  999.0,    0.1,   -0.2,  999.0,  999.0,    0.1,    0.1,   -0.0,  999.0,  999.0,  999.0,  999.0,  999.0,  999.0
2005/09/02 11:50,   -0.4,   -0.0,   -0.7,   -0.2,   -0.3,   -0.2,  999.0,  999.0,  999.0,  999.0,   -0.1,    0.2,    0.1,    0.0,   -0.0,  999.0,  999.0,   -0.0,  999.0,   -0.2,   -0.2,   -0.2,    0.0,    0.1,  999.0,  999.0,  999.0,  999.0,  999.0,  999.0
2005/09/02 12:00,   -0.3,    0.3,   -0.6,   -0.5,   -0.4,  999.0,  999.0,  999.0,  999.0,  999.0,  999.0,  999.0,  999.0,   -0.1,    0.0,  999.0,    0.1,   -0.0,   -0.1,   -0.2,   -0.1,   -0.3,    0.0,  999.0,  999.0,  999.0,  999.0,  999.0,  999.0,  999.0
2005/09/02 12:10,    0.2,    0.2,   -0.6,   -1.2,   -0.7,   -0.0,  999.0,  999.0,  999.0,  999.0,    0.5,   -0.3,    0.3,   -0.1,    0.1,  999.0,   -0.0,   -0.1,    0.1,  999.0,   -0.0,   -0.2,    0.1,   -0.0,  999.0,  999.0,  999.0,  999.0,    0.2,   -0.3
2005/09/02 12:20,   -0.1,    0.0,   -0.0,   -0.2,    0.3,   -0.1,  999.0,  999.0,  999.0,  999.0,    0.3,   -0.0,   -0.0,    0.1,    0.0,   -0.1,   -0.1,   -0.1,    0.2,    0.0,    0.1,   -0.1,    0.3,    0.1,    0.2,  999.0,  999.0,  999.0,    0.2,   -0.3
2005/09/02 12:30,    0.1,    0.0,   -0.1,   -0.0,   -0.4,  999.0,  999.0,  999.0,  999.0,  999.0,  999.0,    0.0,   -0.2,   -0.2,    0.2,    0.3,   -0.1,  999.0,   -0.1,   -0.1,  999.0,    0.1,    0.0,  999.0,  999.0,  999.0,  999.0,  999.0,    0.2,    0.1
2005/09/02 12:40,    0.2,    0.3,   -0.1,   -0.1,   -0.4,   -0.1,    0.1,  999.0,  999.0,  999.0,  999.0,    0.1,    0.2,    0.0,    0.1,    0.0,   -0.0,   -0.1,   -0.0,    0.1,    0.1,    0.1,    0.0,    0.0,  999.0,  999.0,  999.0,  999.0,  999.0,  999.0
2005/09/02 12:50,    0.1,    0.4,    0.1,    0.1,    0.1,    0.3,  999.0,    0.6,    0.2,  999.0,  999.0,  999.0,    0.4,    0.1,   -0.0,  999.0,    0.1,   -0.1,    0.0,  999.0,    0.1,   -0.1,   -0.0,    0.0,  999.0,  999.0,  999.0,  999.0,  999.0,   -0.1
2005/09/02 13:00,    0.1,   -0.1,   -0.4,   -0.1,   -0.6,   -0.3,  999.0,  999.0,    0.5,  999.0,    0.0,    0.2,    0.3,   -0.1,    0.1,  999.0,  999.0,    0.0,    0.0,   -0.0,  999.0,  999.0,   -0.2,    0.1,  999.0,  999.0,  999.0,  999.0,  999.0,    0.0
2005/09/02 13:10,    1.2,    0.4,   -0.4,    0.2,   -0.1,    0.1,  999.0,    0.6,    0.7,    0.5,    0.5,    0.2,    0.2,    0.1,   -0.3,    0.2,    0.2,   -0.4,   -0.0,   -0.2,    0.0,    0.2,    0.1,    0.1,  999.0,  999.0,  999.0,  999.0,  999.0,    0.2
2005/09/02 13:20,   -0.1,   -0.4,   -0.1,   -0.2,   -0.0,  999.0,  999.0,  999.0,  999.0,  999.0,  999.0,    0.2,   -0.0,    0.1,    0.2,  999.0,    0.0,   -0.1,   -0.3,   -0.1,  999.0,  999.0,   -0.2,    0.2,  999.0,    0.3,  999.0,  999.0,  999.0,  999.0
2005/09/02 13:30,   -0.3,   -0.0,    0.3,    0.6,    0.6,  999.0,  999.0,    0.5,  999.0,    0.3,  999.0,  999.0,    0.2,    0.2,   -0.0,   -0.2,  999.0,   -0.0,   -0.4,    0.1,  999.0,   -0.2,   -0.3,   -0.0,  999.0,  999.0,  999.0,  999.0,  999.0,  999.0
2005/09/02 13:40,    0.4,   -0.3,    0.1,    0.3,    0.2,  999.0,  999.0,   -0.1,    0.1,  999.0,    0.2,  999.0,    0.2,   -0.1,    0.1,  999.0,   -0.0,    0.1,   -0.3,   -0.0,  999.0,   -0.0,   -0.3,   -0.1,  999.0,  999.0,  999.0,  999.0,  999.0,  999.0
2005/09/02 13:50,    0.4,   -0.4,   -0.2,   -0.0,   -0.0,   -0.0,  999.0,    0.3,  999.0,    0.1,  999.0,  999.0,    0.1,    0.1,    0.2,  999.0,  999.0,  999.0,   -0.0,  999.0,   -0.4,  999.0,    0.1,  999.0,  999.0,  999.0,  999.0,  999.0,  999.0,  999.0
2005/09/02 14:00,    0.5,    0.5,    0.1,    0.0,    0.3,  999.0,    0.3,  999.0,  999.0,  999.0,    0.1,  999.0,    0.5,    0.5,    0.3,  999.0,  999.0,  999.0,   -0.3,  999.0,    0.6,  999.0,  999.0,   -0.0,  999.0,  999.0,  999.0,  999.0,  999.0,  999.0
2005/09/02 14:10,   -0.2,   -0.2,   -0.2,    0.2,    0.2,    0.2,    0.0,  999.0,    0.1,    0.2,    0.1,  999.0,    0.2,   -0.1,    0.0,  999.0,    0.2,    0.1,   -0.1,    0.2,   -0.1,  999.0,    0.0,  999.0,  999.0,  999.0,  999.0,  999.0,  999.0,  999.0
2005/09/02 14:20,    0.3,    0.3,   -0.0,   -0.0,    0.1,   -0.1,   -0.7,    0.4,    0.3,   -0.1,  999.0,    1.1,   -0.2,    0.2,    0.3,  999.0,  999.0,    0.0,   -0.1,  999.0,   -0.6,    0.0,    0.1,   -0.2,  999.0,  999.0,  999.0,  999.0,  999.0,  999.0
2005/09/02 14:30,   -0.0,    0.1,    0.0,   -0.0,    0.6,    0.2,    0.9,  999.0,    0.2,    0.5,    0.0,  999.0,   -0.1,    0.3,    0.3,  999.0,  999.0,  999.0,   -0.1,    0.1,    0.0,  999.0,    0.3,    0.1,  999.0,  999.0,  999.0,  999.0,  999.0,  999.0
2005/09/02 14:40,   -0.1,   -0.7,   -0.3,   -0.1,    0.3,    0.0,   -0.2,    0.0,   -0.2,   -0.1,   -0.8,   -0.5,   -0.0,   -0.0,   -0.1,    0.1,  999.0,  999.0,    0.0,   -0.1,  999.0,   -0.7,   -0.2,    0.0,  999.0,  999.0,  999.0,  999.0,  999.0,  999.0
2005/09/02 14:50,    0.3,    0.1,    0.1,   -0.4,   -0.0,   -0.3,   -0.5,   -0.1,   -0.2,   -0.5,   -0.0,    0.4,   -0.1,   -0.2,    0.3,  999.0,   -0.1,   -0.0,  999.0,  999.0,  999.0,    0.1,   -0.1,   -0.3,  999.0,  999.0,  999.0,  999.0,  999.0,  999.0
2005/09/02 15:00,    0.0,   -0.5,   -0.0,   -0.3,   -0.1,   -0.5,   -0.8,   -0.4,   -0.6,   -0.5,   -0.1,   -0.3,   -0.4,    0.1,  999.0,   -0.5,  999.0,  999.0,   -0.3,  999.0,    0.2,   -0.1,   -0.0,    0.1,  999.0,  999.0,  999.0,  999.0,  999.0,  999.0
2005/09/02 15:10,   -0.1,   -0.1,   -0.2,   -0.5,   -1.3,   -1.5,   -1.5,   -1.5,   -1.3,   -1.1,   -0.6,   -0.4,    0.0,   -0.2,   -0.0,   -0.0,  999.0,    0.0,    0.3,  999.0,  999.0,  999.0,   -0.2,    0.0,  999.0,  999.0,  999.0,  999.0,  999.0,  999.0
2005/09/02 15:20,   -2.8,   -2.7,   -2.4,   -2.5,   -2.4,   -2.2,   -2.2,   -2.1,   -1.7,   -1.4,   -1.1,   -0.8,   -0.5,   -0.1,    0.0,   -0.2,  999.0,    0.2,    0.1,  999.0,  999.0,   -0.1,    0.4,    0.0,  999.0,  999.0,  999.0,  999.0,  999.0,   -0.2
2005/09/02 15:30,   -2.4,   -1.7,   -2.2,   -2.2,   -1.3,   -1.5,   -1.0,   -0.9,   -1.2,   -1.9,   -0.9,   -1.1,   -0.6,   -0.3,   -0.0,   -0.1,   -0.0,    0.1,  999.0,  999.0,  999.0,  999.0,   -0.1,    0.1,  999.0,  999.0,  999.0,  999.0,  999.0,  999.0
2005/09/02 15:40,   -3.7,   -3.6,   -3.4,   -3.3,   -2.9,   -2.7,   -2.8,   -1.9,   -1.5,   -2.3,   -1.5,   -0.3,   -0.5,   -0.2,   -0.1,   -0.5,   -0.9,    0.1,   -0.1,    0.0,    0.1,    0.0,  999.0,   -0.0,    0.1,  999.0,  999.0,  999.0,   -0.1,    0.0
2005/09/02 15:50,   -4.2,   -4.1,   -3.4,   -3.4,   -3.1,   -2.9,   -2.9,   -2.6,   -2.4,   -2.3,   -2.0,   -1.7,   -1.2,   -0.7,   -0.1,    0.0,    0.3,   -0.0,   -0.0,  999.0,    0.2,   -0.1,   -0.0,  999.0,   -0.2,  999.0,  999.0,  999.0,  999.0,  999.0
2005/09/02 16:00,  999.0,  999.0,  999.0,   -0.2,   -0.2,   -0.3,  999.0,  999.0,  999.0,  999.0,  999.0,   -0.7,   -0.3,   -0.0,    0.0,    0.3,   -0.7,   -0.0,   -0.0,  999.0,    0.1,    0.0,   -0.2,   -0.1,  999.0,  999.0,  999.0,  999.0,  999.0,  999.0
2005/09/02 16:10,    0.1,    0.1,    0.2,    0.5,   -0.0,   -0.1,  999.0,  999.0,  999.0,  999.0,  999.0,  999.0,  999.0,   -0.1,    0.0,   -0.0,   -0.2,  999.0,  999.0,  999.0,   -0.2,   -0.0,    0.0,    0.0,  999.0,   -0.1,  999.0,  999.0,  999.0,  999.0
2005/09/02 16:20,    0.3,    0.3,    0.3,    0.0,    0.1,  999.0,   -0.2,  999.0,  999.0,  999.0,  999.0,   -1.7,   -0.2,   -0.1,    0.0,    0.0,  999.0,    0.1,   -0.0,  999.0,   -0.1,    0.3,    0.2,    0.1,   -0.1,  999.0,  999.0,  999.0,   -0.1,  999.0
2005/09/02 16:30,   -0.2,   -0.9,   -1.1,   -0.6,   -0.4,   -1.0,   -1.0,   -0.9,   -0.8,   -1.7,   -1.8,   -1.5,  999.0,   -0.2,   -0.3,    0.1,   -0.8,   -0.3,   -0.2,  999.0,  999.0,  999.0,   -0.4,    0.4,   -0.2,  999.0,  999.0,  999.0,  999.0,  999.0
2005/09/02 16:40,    0.1,    0.2,   -0.8,    0.1,    0.1,   -0.5,   -0.1,   -0.5,  999.0,  999.0,  999.0,   -0.4,   -0.6,   -0.7,   -0.1,   -0.0,   -0.1,   -0.1,  999.0,  999.0,    0.1,   -0.1,   -0.1,    0.1,   -0.6,   -0.0,  999.0,  999.0,  999.0,  999.0
2005/09/02 16:50,   -3.9,   -3.7,   -3.7,   -3.9,   -3.7,   -3.7,   -3.5,   -3.3,   -2.9,   -3.1,   -3.0,   -2.7,   -2.3,   -1.8,   -1.4,   -1.2,   -1.0,  999.0,   -0.2,  999.0,    0.1,  999.0,   -0.1,   -0.0,   -0.4,    0.5,    0.1,   -1.4,   -1.1,   -0.3
2005/09/02 17:00,   -4.0,   -3.8,   -4.3,   -3.5,   -3.4,   -3.7,   -3.7,   -3.4,   -3.6,   -3.6,   -3.2,   -3.2,   -3.1,   -2.8,   -2.8,   -2.8,   -3.3,   -5.3,   -3.4,   -4.0,   -2.9,   -3.0,   -3.4,   -2.9,   -2.4,   -2.5,   -1.9,   -1.4,   -1.1,   -0.8
2005/09/02 17:10,   -5.3,   -5.1,   -4.7,   -4.0,   -1.8,   -2.8,   -3.7,   -4.3,   -3.8,   -3.2,   -2.0,   -1.8,   -1.7,   -1.6,   -2.7,   -5.0,   -3.4,   -5.1,   -5.5,   -5.4,   -5.4,   -5.1,   -2.5,   -1.8,   -2.2,   -1.8,   -1.9,   -1.7,   -1.7,   -1.3
2005/09/02 17:20,   -4.9,   -4.4,   -4.2,   -4.1,   -3.8,   -3.4,   -4.0,   -3.4,   -3.3,   -3.9,   -4.0,   -4.0,   -3.9,   -3.7,   -3.2,   -3.6,   -3.4,   -2.6,   -2.5,   -2.4,   -3.6,   -3.2,   -3.1,   -3.3,   -3.0,   -2.9,   -2.5,  999.0,   -1.4,   -0.5
2005/09/02 17:30,   -5.5,   -5.2,   -4.9,   -4.7,   -4.4,   -4.0,   -3.7,   -3.6,   -3.6,   -3.6,   -3.6,   -3.5,   -3.8,   -3.8,   -3.8,   -3.7,   -3.6,   -3.7,   -3.9,   -4.0,   -3.8,   -3.2,   -3.5,   -3.2,   -2.8,   -2.2,   -2.1,   -1.9,   -1.5,   -1.0
2005/09/02 17:40,   -6.4,   -6.6,   -6.7,   -6.6,   -6.6,   -6.6,   -6.4,   -6.2,   -5.9,   -6.0,   -3.7,   -4.4,   -4.1,   -3.7,   -3.5,   -4.5,   -4.3,   -4.1,   -3.5,   -3.2,   -3.1,   -3.3,   -3.2,   -3.0,   -2.4,   -2.2,   -1.9,   -1.8,   -1.5,   -1.1
2005/09/02 17:50,   -6.4,   -6.3,   -6.5,   -6.4,   -6.2,   -6.4,   -6.4,   -5.8,   -5.7,   -5.9,   -6.0,   -5.9,   -5.7,   -5.6,   -5.3,   -6.0,   -6.1,   -6.1,   -6.1,   -6.2,   -6.4,   -5.9,   -4.8,   -3.5,   -2.9,   -2.7,   -2.7,   -2.3,   -2.1,   -1.9
2005/09/02 18:00,   -6.5,   -6.6,   -6.7,   -6.8,   -6.9,   -7.1,   -7.0,   -7.0,   -7.1,   -7.0,   -7.2,   -7.4,   -7.3,   -6.8,   -7.0,   -7.0,   -6.9,   -6.5,   -6.4,   -6.5,   -6.0,   -5.0,   -4.2,   -3.2,   -2.6,   -2.5,   -2.6,   -2.2,   -1.9,   -2.0
2005/09/02 18:10,   -5.9,   -6.1,   -6.6,   -6.3,   -6.5,   -6.7,   -6.6,   -6.5,   -6.6,   -6.7,   -6.8,   -6.9,   -7.0,   -6.8,   -6.4,   -6.4,   -6.8,   -6.5,   -6.5,   -6.2,   -6.0,   -5.1,   -3.4,   -2.5,   -2.3,   -2.4,   -2.4,   -2.9,   -2.9,   -2.5
2005/09/02 18:20,   -6.7,   -6.8,   -6.8,   -6.8,   -6.8,   -7.0,   -6.9,   -7.1,   -7.3,   -7.5,   -7.4,   -7.5,   -7.8,   -7.8,   -7.4,   -7.5,   -7.8,   -7.8,   -7.7,   -8.0,   -6.8,   -4.9,  999.0,   -2.0,   -1.9,   -1.7,   -1.8,   -1.5,   -1.5,   -1.8
2005/09/02 18:30,   -6.7,   -6.7,   -6.8,   -6.8,   -6.9,   -6.9,   -7.0,   -7.0,   -7.0,   -7.0,   -7.1,   -7.5,   -7.6,   -7.6,   -7.6,   -7.5,   -7.4,   -7.3,   -7.1,   -6.7,   -6.5,   -5.1,  999.0,   -2.1,   -2.1,  999.0,  999.0,    0.2,   -0.6,   -0.9
2005/09/02 18:40,   -5.9,   -6.1,   -6.5,   -6.4,   -6.6,   -6.7,   -7.0,   -7.1,   -7.2,   -7.1,   -7.3,   -6.9,   -6.1,   -5.7,   -5.1,   -4.7,   -4.1,   -3.9,   -4.8,   -3.8,   -4.4,   -4.0,   -2.5,   -1.4,   -1.1,  999.0,  999.0,   -0.2,   -0.2,   -0.4
2005/09/02 18:50,   -5.3,   -5.7,   -5.8,   -6.0,   -5.9,   -5.8,   -5.6,   -5.2,   -5.1,   -4.5,   -4.2,   -3.8,   -3.3,   -3.2,   -1.7,   -2.7,   -1.4,   -1.6,    0.4,   -0.1,   -0.1,   -0.4,   -0.8,   -0.6,   -0.3,   -1.1,  999.0,  999.0,    0.2,   -0.6
2005/09/02 19:00,   -4.7,   -4.6,   -4.6,   -4.5,   -4.2,   -3.8,   -3.4,   -3.3,   -3.0,   -2.9,   -2.7,   -2.3,   -1.8,   -2.4,   -0.2,   -0.6,   -0.2,   -0.3,    0.0,   -0.0,    0.2,    0.1,   -0.5,   -0.4,   -0.3,  999.0,  999.0,  999.0,    0.0,    0.2
2005/09/02 19:10,   -3.4,   -2.6,   -2.5,   -2.4,   -1.4,   -2.3,   -2.1,   -2.2,   -1.9,   -1.5,   -1.5,   -1.7,   -1.6,   -1.3,   -1.0,   -0.6,   -0.3,   -0.2,    0.0,    0.1,    0.1,    0.2,   -0.0,  999.0,  999.0,  999.0,  999.0,  999.0,   -0.1,   -0.1
2005/09/02 19:20,   -2.3,   -2.4,   -2.1,   -1.8,   -1.5,   -1.6,   -1.6,   -1.7,   -1.7,   -1.6,   -1.6,   -1.7,   -1.9,   -1.7,   -1.0,   -1.1,   -0.7,   -0.4,   -0.0,   -0.0,  999.0,  999.0,    0.0,    0.1,  999.0,  999.0,  999.0,  999.0,    0.1,   -0.2
2005/09/02 19:30,   -3.9,   -2.8,   -2.1,   -3.1,   -2.9,   -2.8,   -2.6,   -2.3,   -2.0,   -1.5,   -1.5,   -1.3,   -1.0,   -0.7,   -0.4,   -0.1,   -0.1,   -0.1,    0.0,   -0.0,  999.0,    0.0,    0.1,   -0.4,  999.0,  999.0,  999.0,  999.0,   -0.0,  999.0
2005/09/02 19:40,   -1.7,   -1.8,   -1.5,   -1.7,   -1.1,   -1.8,   -1.7,   -1.8,   -1.7,   -1.8,   -1.5,   -1.4,   -1.4,   -1.1,   -0.2,  999.0,  999.0,   -0.6,  999.0,  999.0,  999.0,  999.0,  999.0,  999.0,  999.0,  999.0,  999.0,  999.0,  999.0,   -0.4
2005/09/02 19:50,   -2.1,   -2.1,   -2.3,   -2.2,   -2.0,   -2.0,   -2.1,   -2.0,   -2.3,   -2.3,   -2.2,   -2.7,  999.0,   -1.2,   -1.1,  999.0,   -0.4,  999.0,   -0.0,  999.0,  999.0,   -0.3,   -0.0,  999.0,  999.0,  999.0,  999.0,  999.0,   -0.3,  999.0
2005/09/02 20:00,   -4.3,   -4.3,   -4.1,   -3.8,   -3.2,   -3.3,   -3.3,   -2.8,   -2.3,   -2.0,   -2.2,   -2.1,   -1.9,   -1.5,   -1.6,  999.0,  999.0,  999.0,  999.0,  999.0,  999.0,  999.0,  999.0,  999.0,  999.0,  999.0,  999.0,  999.0,    0.0,  999.0
2005/09/02 20:10,  999.0,  999.0,  999.0,  999.0,  999.0,  999.0,  999.0,   -1.0,  999.0,  999.0,  999.0,  999.0,   -0.2,  999.0,   -1.9,  999.0,   -1.5,  999.0,  999.0,  999.0,    0.2,  999.0,  999.0,  999.0,  999.0,  999.0,  999.0,  999.0,  999.0,  999.0
2005/09/02 20:20,    0.5,   -0.2,    0.3,  999.0,  999.0,    0.1,  999.0,  999.0,  999.0,  999.0,  999.0,  999.0,   -0.1,  999.0,   -1.9,   -1.6,   -0.9,   -0.6,    0.2,  999.0,  999.0,  999.0,  999.0,    0.2,  999.0,  999.0,  999.0,  999.0,  999.0,  999.0
2005/09/02 20:30,    0.3,   -0.1,    0.4,  999.0,  999.0,  999.0,  999.0,  999.0,  999.0,   -0.2,  999.0,   -0.1,  999.0,  999.0,  999.0,  999.0,  999.0,   -0.5,   -0.1,   -0.2,    0.2,  999.0,  999.0,  999.0,  999.0,  999.0,  999.0,  999.0,  999.0,  999.0
2005/09/02 20:40,  999.0,  999.0,  999.0,   -0.0,  999.0,  999.0,  999.0,  999.0,  999.0,  999.0,  999.0,  999.0,  999.0,  999.0,   -0.7,  999.0,  999.0,  999.0,  999.0,  999.0,  999.0,  999.0,   -0.1,  999.0,  999.0,  999.0,  999.0,  999.0,  999.0,   -0.1
2005/09/02 20:50,    0.4,    0.5,    0.3,  999.0,  999.0,   -0.1,  999.0,  999.0,  999.0,  999.0,  999.0,  999.0,  999.0,  999.0,    0.1,  999.0,  999.0,  999.0,  999.0,  999.0,  999.0,  999.0,  999.0,  999.0,  999.0,  999.0,  999.0,  999.0,  999.0,  999.0
2005/09/02 21:00,    0.4,    0.4,  999.0,    0.2,  999.0,    0.3,  999.0,  999.0,  999.0,  999.0,  999.0,  999.0,   -0.1,  999.0,   -3.4,   -3.1,  999.0,   -2.9,   -3.2,   -1.2,   -2.5,   -1.6,   -1.2,   -1.2,    0.0,  999.0,  999.0,  999.0,  999.0,  999.0
2005/09/02 21:10,  999.0,   -1.7,   -1.7,  999.0,  999.0,  999.0,  999.0,  999.0,  999.0,  999.0,  999.0,  999.0,   -3.3,   -3.1,   -1.9,   -3.0,   -3.5,   -3.4,   -3.3,   -3.0,   -2.7,   -2.4,   -2.1,   -1.5,   -1.0,   -0.8,  999.0,  999.0,  999.0,  999.0
2005/09/02 21:20,   -0.5,   -1.6,   -0.3,  999.0,  999.0,   -0.2,  999.0,  999.0,  999.0,  999.0,  999.0,  999.0,   -2.5,   -2.2,   -1.9,   -1.8,   -1.7,   -1.7,   -1.4,   -1.6,   -1.2,   -1.2,  999.0,  999.0,   -0.8,  999.0,  999.0,  999.0,  999.0,  999.0
2005/09/02 21:30,   -2.2,  999.0,  999.0,   -0.1,  999.0,  999.0,  999.0,  999.0,  999.0,  999.0,  999.0,  999.0,   -2.7,   -2.4,   -2.7,   -2.5,   -2.4,   -2.1,   -1.8,   -1.5,   -1.1,   -1.0,   -1.0,   -0.1,   -0.9,   -0.3,  999.0,  999.0,  999.0,  999.0
2005/09/02 21:40,  999.0,  999.0,  999.0,  999.0,  999.0,   -0.2,  999.0,  999.0,  999.0,  999.0,  999.0,   -1.0,   -0.2,    0.2,   -0.5,  999.0,   -2.5,   -1.1,   -1.2,   -1.5,   -1.4,   -1.1,   -1.1,   -1.1,   -0.8,  999.0,  999.0,  999.0,  999.0,  999.0
2005/09/02 21:50,    0.0,  999.0,  999.0,  999.0,   -0.2,   -0.2,  999.0,  999.0,  999.0,   -1.3,  999.0,  999.0,  999.0,  999.0,   -0.1,  999.0,  999.0,  999.0,   -2.0,   -1.6,   -1.7,   -1.6,   -1.5,   -1.0,   -0.9,   -0.5,  999.0,  999.0,  999.0,  999.0
2005/09/02 22:00,    0.3,   -0.7,  999.0,    0.2,  999.0,  999.0,  999.0,  999.0,  999.0,  999.0,  999.0,   -1.4,  999.0,  999.0,    0.1,  999.0,  999.0,   -1.5,   -1.6,   -1.5,   -1.3,   -1.4,   -1.5,   -1.1,   -0.8,   -0.5,  999.0,  999.0,  999.0,  999.0
2005/09/02 22:10,    0.7,    0.4,  999.0,  999.0,  999.0,    0.2,  999.0,  999.0,  999.0,  999.0,  999.0,  999.0,  999.0,   -0.3,   -0.1,  999.0,  999.0,  999.0,  999.0,  999.0,   -1.0,   -1.4,   -1.2,   -1.4,   -0.9,   -0.5,  999.0,  999.0,  999.0,  999.0
2005/09/02 22:20,    1.1,    2.0,  999.0,    0.0,    0.0,  999.0,  999.0,  999.0,  999.0,  999.0,  999.0,  999.0,    0.1,   -0.1,   -0.2,  999.0,  999.0,  999.0,  999.0,   -0.9,   -1.2,   -0.4,   -0.9,   -0.1,  999.0,  999.0,  999.0,  999.0,  999.0,  999.0
2005/09/02 22:30,  999.0,  999.0,    0.2,  999.0,  999.0,  999.0,  999.0,  999.0,  999.0,  999.0,  999.0,  999.0,   -0.2,    0.2,    0.3,    0.0,  999.0,  999.0,  999.0,  999.0,   -0.1,   -1.3,   -1.2,   -1.1,   -1.0,   -0.7,  999.0,  999.0,  999.0,  999.0
2005/09/02 22:40,  999.0,  999.0,  999.0,   -0.6,  999.0,  999.0,  999.0,  999.0,  999.0,  999.0,  999.0,  999.0,   -0.2,    0.1,   -0.2,  999.0,  999.0,  999.0,  999.0,   -0.0,  999.0,   -1.7,   -0.6,   -0.9,  999.0,   -0.2,  999.0,  999.0,  999.0,  999.0
2005/09/02 22:50,    1.3,    2.4,  999.0,  999.0,    0.5,  999.0,  999.0,  999.0,  999.0,  999.0,   -0.2,  999.0,  999.0,   -0.3,   -0.3,    0.4,  999.0,  999.0,  999.0,  999.0,  999.0,   -0.5,   -0.2,   -0.1,  999.0,  999.0,   -0.1,  999.0,  999.0,  999.0
2005/09/02 23:00,  999.0,    0.2,  999.0,  999.0,  999.0,  999.0,  999.0,  999.0,  999.0,  999.0,  999.0,  999.0,  999.0,  999.0,  999.0,  999.0,  999.0,  999.0,  999.0,  999.0,  999.0,  999.0,  999.0,  999.0,  999.0,  999.0,  999.0,  999.0,  999.0,  999.0
2005/09/02 23:10,   -0.1,  999.0,  999.0,  999.0,  999.0,   -0.3,  999.0,  999.0,  999.0,  999.0,  999.0,  999.0,  999.0,  999.0,  999.0,  999.0,  999.0,  999.0,  999.0,  999.0,  999.0,  999.0,  999.0,  999.0,  999.0,  999.0,  999.0,  999.0,  999.0,  999.0
2005/09/02 23:20,  999.0,    3.0,  999.0,  999.0,  999.0,  999.0,  999.0,  999.0,  999.0,  999.0,  999.0,  999.0,  999.0,  999.0,  999.0,  999.0,   -1.7,  999.0,  999.0,  999.0,  999.0,  999.0,  999.0,  999.0,  999.0,  999.0,  999.0,  999.0,  999.0,  999.0
2005/09/02 23:30,  999.0,  999.0,   -0.4,  999.0,  999.0,  999.0,  999.0,  999.0,  999.0,   -0.5,  999.0,  999.0,  999.0,    0.1,    0.1,  999.0,  999.0,  999.0,  999.0,  999.0,  999.0,  999.0,   -0.2,  999.0,  999.0,  999.0,  999.0,  999.0,  999.0,  999.0
2005/09/02 23:40,    0.3,   -0.0,  999.0,  999.0,  999.0,  999.0,  999.0,  999.0,  999.0,  999.0,  999.0,  999.0,  999.0,   -0.6,   -1.4,  999.0,  999.0,  999.0,  999.0,  999.0,  999.0,  999.0,  999.0,  999.0,  999.0,  999.0,  999.0,  999.0,  999.0,  999.0
2005/09/02 23:50,    0.2,    0.8,  999.0,    0.2,  999.0,  999.0,  999.0,  999.0,  999.0,  999.0,  999.0,    1.2,  999.0,   -0.1,   -0.1,  999.0,  999.0,    0.0,   -0.9,    1.0,  999.0,    0.0,   -0.0,   -0.1,    0.5,  999.0,  999.0,  999.0,  999.0,  999.0
